www.pogodaiklimat.ru

Погода и климат >> Архив погоды >> Индонезия >> Палу


ПОГОДА в Палу

  • Прогноз погоды в Палу
  • Монитор погоды в Палу

АРХИВ ПОГОДЫ в Палу

Время (UTC), дата Ветер
(напр.,м/с)
 
Видим.   Явления Облачность Т
(С)
Тd
(С)
f
(%)
Тe
(С)
Тes
(С)
Комфортность P
(гПа)
Po
(гПа)
Тmin
(С)
Tmax
(С)
R
(мм)
R24
(мм)
S
(см)
00 20.06 В 1 8000 м 8/4 570 м
[Cu med, cong Ac As Ci fib]
+26.6 +23.6 84 +36 +38 очень
душно
1012.9 1002.8 +22.6
03 20.06 СЗ 2 8000 м 8/4 540 м
[Cu med, cong Ac As Ci fib]
+31.0 +23.2 63 +41 +48 опасность
перегрева
1012.1 1002.1
06 20.06 С 7 8000 м 8/4 540 м
[Cu Sc Ac As Ci fib]
+30.6 +24.9 72 +44 +45 опасность
перегрева
1009.8 999.8
09 20.06 СЗ 2 6000 м 9/4 500 м
[Cu Sc Ac As Ci fib]
+28.0 +25.7 87 +41 +42 опасность
перегрева
1010.0 1000.0
12 20.06 С 1 6000 м 8/4 540 м
[Cb cap Ac As Ci fib]
+26.6 +24.2 87 +37 +37 очень
душно
1012.5 1002.4 +31.8
15 20.06 СВ 2 6000 м 8/4 540 м
[Sc Ac As Ci fib]
+25.8 +24.3 91 +36 +36 очень
душно
1012.5 1002.5
18 20.06 штиль 0 5000 м слаб. дождь 9/4 570 м
[Sc As trans Ci fib]
+25.4 +24.2 93 +35 +35 очень
душно
1011.1 1001.0 0.0
21 20.06 СВ 1 8000 м {дождь} 5/3 600 м
[Sc Ac As Ci fib]
+24.8 +23.8 94 +34 +34 очень
душно
1011.5 1001.5 0.0
00 21.06 СВ 1 10 км {дождь} 5/3 600 м
[Cu med, cong Ac As Ci fib]
+26.0 +23.6 87 +35 +39 очень
душно
1012.9 1002.9 +22.8 0.0
03 21.06 С 1 10 км 4/3 600 м
[Cu med, cong As trans Ci fib]
+31.2 +24.3 67 +43 +57 опасность
перегрева
1010.3 1000.3
06 21.06 С 5 10 км 5/3 570 м
[Cu med, cong Ac As Ci fib]
+31.6 +25.1 69 +46 +50 опасность
перегрева
1007.8 997.8
09 21.06 С 5 8000 м 6/3 570 м
[Cu med, cong Ac As Ci fib]
+30.0 +24.5 72 +42 +42 опасность
перегрева
1008.3 998.3
12 21.06 С 3 7000 м 8/4 540 м
[Cu med, cong Ac As Ci fib]
+27.8 +25.2 86 +40 +40 очень
душно
1010.5 1000.5 +32.6
15 21.06 СВ 1 7000 м 6/3 540 м
[Sc Ac As Ci fib]
+26.8 +25.0 90 +39 +39 очень
душно
1011.5 1001.5
18 21.06 В 1 7000 м 8/4 540 м
[Sc Ac As Ci fib]
+25.8 +24.6 93 +36 +36 очень
душно
1011.2 1001.2
21 21.06 В 1 7000 м 8/4 570 м
[Sc Ac As Ci fib]
+25.4 +24.2 93 +35 +35 очень
душно
1010.2 1000.2
00 22.06 штиль 0 8000 м осадки на расстоянии 8/4 540 м
[Cu med, cong Ac As Ci fib]
+26.0 +23.9 88 +36 +38 очень
душно
1011.5 1001.4 +23.6
03 22.06 штиль 0 10 км 5/3 600 м
[Cu med, cong Ac As Ci fib]
+30.8 +23.9 67 +42 +56 опасность
перегрева
1009.7 999.6
06 22.06 С 6 10 км 5/3 570 м
[Cu med, cong Ac As Ci fib]
+31.2 +24.3 67 +43 +47 опасность
перегрева
1007.0 997.0
09 22.06 С 5 8000 м осадки на расстоянии 8/5 570 м
[Cu Sc Ac As Ci fib]
+29.2 +25.2 79 +42 +43 опасность
перегрева
1007.4 997.4
12 22.06 С 3 5000 м слаб. дождь 10/5 540 м
[Sc Ac As]
+26.8 +24.7 88 +38 +38 очень
душно
1010.4 1000.4 +32.4 0.0
15 22.06 СВ 2 4000 м дождь 10/5 480 м
[Sc Ac As]
+24.8 +24.1 96 +34 +34 очень
душно
1012.3 1002.3 6
18 22.06 штиль 0 3000 м слаб. дождь 10/6 480 м
[Sc Ac As]
+24.0 +23.6 98 +33 +33 очень
душно
1010.9 1000.9 13
21 22.06 штиль 0 4000 м {дождь} 10/5 420 м
[Sc Ac As]
+24.2 +23.8 98 +33 +33 очень
душно
1011.3 1001.3 0.9
00 23.06 В 1 7000 м {дождь} 8/4 570 м
[Sc Ac As Cs]
+24.6 +23.9 96 +34 +36 очень
душно
1012.5 1002.5 +22.6 21
03 23.06 СВ 1 10 км 6/5 570 м
[Cu Sc Ac As Ci fib]
+29.4 +23.9 72 +40 +50 очень
душно
1011.3 1001.3
06 23.06 С 4 10 км 6/5 570 м
[Cu Sc Ac As Ci fib]
+30.8 +24.5 69 +43 +48 опасность
перегрева
1008.8 998.8
09 23.06 С 3 9000 м 8/5 570 м
[Cu Sc Ac As Cs]
+29.6 +24.1 72 +41 +41 опасность
перегрева
1009.2 999.1
12 23.06 штиль 0 7000 м осадки на расстоянии 8/4 570 м
[Sc Ac As Ci fib]
+27.4 +24.8 86 +39 +39 очень
душно
1011.4 1001.3 +31.6
15 23.06 штиль 0 6000 м осадки на расстоянии 8/4 540 м
[Sc Ac As Ci fib]
+26.2 +24.4 90 +37 +37 очень
душно
1012.4 1002.3
18 23.06 штиль 0 6000 м осадки на расстоянии 9/5 500 м
[Sc Ac As Ci fib]
+25.8 +24.3 91 +36 +36 очень
душно
1011.9 1001.9
21 23.06 штиль 0 7000 м 8/4 540 м
[Sc Ac As Ci fib]
+25.2 +23.9 93 +35 +35 очень
душно
1012.2 1002.2
00 24.06 В 1 8000 м 9/4 540 м
[Cu Sc Ac As Ci fib]
+26.0 +23.6 87 +35 +37 очень
душно
1014.0 1004.0 +22.6
03 24.06 ЮВ 1 10 км 8/4 540 м
[Cu med, cong Ac As Ci fib]
+31.0 +23.8 66 +43 +51 опасность
перегрева
1013.2 1003.1
06 24.06 С 5 9000 м 6/3 540 м
[Cu med, cong Ac As Ci fib]
+31.8 +25.9 71 +47 +51 опасность
перегрева
1010.5 1000.5
09 24.06 СВ 4 7000 м осадки на расстоянии 9/3 500 м
[Cb cap Ac As Ci fib]
+29.8 +23.7 70 +41 +41 опасность
перегрева
1011.2 1001.1
12 24.06 В 1 8000 м {дождь} 5/3 600 м
[Sc As trans Ci fib]
+26.0 +25.1 95 +37 +37 очень
душно
1013.3 1003.2 +32.6 0.3
15 24.06 8000 м н/о +25.0 +24.6 98 +35 +35 очень
душно
1014.1 1004.0
18 24.06 8000 м н/о +24.6 +23.3 92 +33 +33 очень
душно
1012.7 1002.7
21 24.06 8000 м н/о +23.2 +21.9 92 +31 +31 очень
душно
1013.2 1003.1
00 25.06 В 2 10 км {дождь} 8/1 600 м
[Sc Ac As Ci fib]
+25.0 +21.9 83 +32 +35 очень
душно
1014.4 1004.4 +21.4 0.0
03 25.06 С 1 10 км 5/3 570 м
[Cu Sc Ac As Ci fib]
+30.6 +23.0 64 +41 +53 опасность
перегрева
1013.1 1003.0
06 25.06 С 5 8000 м 6/4 570 м
[Cu Sc Ac As Ci fib]
+31.0 +25.3 72 +45 +49 опасность
перегрева
1011.1 1001.1
09 25.06 С 6 6000 м осадки на расстоянии 6/4 480 м
[Cb cap Ac As Ci fib]
+29.0 +25.5 81 +43 +43 опасность
перегрева
1010.8 1000.8
12 25.06 ЮВ 2 6000 м 9/4 540 м
[Sc Ac As Ci fib]
+27.4 +25.3 88 +40 +40 очень
душно
1013.2 1003.2 +31.8 0.0
15 25.06 В 1 4000 м слаб. дождь 9/3 500 м
[Sc Ac As Ci fib]
+26.2 +25.3 95 +38 +38 очень
душно
1014.3 1004.3 2
18 25.06 В 1 5000 м в посл. час дождь 9/4 500 м
[Cu Sc Ac As Ci fib]
+25.4 +24.4 94 +35 +35 очень
душно
1013.2 1003.2 0.8
21 25.06 ЮВ 2 6000 м 9/4 540 м
[Sc Ac As Ci fib]
+25.0 +24.3 96 +35 +35 очень
душно
1013.3 1003.2
00 26.06 СВ 2 9000 м осадки на расстоянии 8/4 570 м
[Cu med, cong Ac As Ci fib]
+25.4 +24.2 93 +35 +37 очень
душно
1013.8 1003.7 +22.8 0.2
03 26.06 В 1 10 км 5/3 600 м
[Cu med, cong Ac As Ci fib]
+30.6 +26.1 77 +46 +58 опасность
перегрева
1012.4 1002.4
06 26.06 С 5 6000 м слаб. ливневой дождь, в посл. час гроза 8/5 540 м
[Cb cap Ac As Ci fib]
+28.8 +24.7 79 +41 +44 опасность
перегрева
1009.9 999.9 0.0
09 26.06 С 5 8000 м в посл. час дождь 6/4 540 м
[Cu Sc Ac As Ci fib]
+29.0 +24.7 78 +41 +42 опасность
перегрева
1009.7 999.7 0.0
12 26.06 СВ 1 7000 м {дождь} 6/3 570 м
[Sc Ac As Ci fib]
+27.2 +25.1 88 +39 +39 очень
душно
1012.1 1002.1 +32.4 0.0
15 26.06 штиль 0 7000 м 5/1 600 м
[Sc As trans Ci fib]
+26.4 +25.2 93 +38 +38 очень
душно
1012.8 1002.8
18 26.06 штиль 0 6000 м 9/4 570 м
[Sc Ac As Ci fib]
+25.8 +24.6 93 +36 +36 очень
душно
1011.8 1001.8
21 26.06 штиль 0 6000 м 9/5 570 м
[Sc Ac As Ci fib]
+25.8 +24.6 93 +36 +36 очень
душно
1011.6 1001.6

 

Местоположение метеостанции Палу (Индонезия): широта -0.68 долгота 119.73 высота над уровнем моря 6 м.

В архиве по умолчанию представлена погода в Палу за последнюю неделю. Архивные данные за месяц целиком и за предыдущие месяцы, начиная с января 2011 года, Вы можете получить, выбрав интересующий диапазон дат из раскрывающегося списка и нажав кнопку "Ввод!".


*Определитесь, кто Вы:
робот инопланетянин человек

Внимание! Время в таблицах - всемирное. Для получения местного времени необходимо прибавить поправку, которая равна 8 ч.

Смотрите также архив погоды в соседних городах и на ближайших метеорологических станциях:

Погода в Посо (Индонезия) (136 км)
Погода в Маджене (Индонезия) (218 км)
Погода в Масамбе (Индонезия) (219 км)
Погода в Толи-Толи (Индонезия) (223 км)
Погода в Самаринде (Индонезия) (287 км)
Погода в Баликпапане (Индонезия) (321 км)
Погода в Лувуке (Индонезия) (340 км)
Погода в Горонтало (Индонезия) (394 км)
Погода в Танджунгредепе (Индонезия) (402 км)
Погода в Колаке (Индонезия) (450 км)

Пояснения к столбцам:

Ветер - указаны скорость ветра в м/с - средняя за 10 мин, порывы в срок и между сроками (в фигурных скобках) и направление, откуда дует ветер: С - северный, СВ - северо-восточный, В - восточный, ЮВ - юго-восточный, Ю - южный, ЮЗ - юго-западный, З - западный, СЗ - северо-западный.
Видимость - горизонтальная дальность видимости в метрах или километрах. При видимости от 1 до 10 км при отсутствии осадков обычно наблюдается дымка, при ухудшении видимости до 1 км и менее - туман. В сухую погоду видимость может ухудшаться дымом, пылью или мглою.
Явления - указаны атмосферные явления, наблюдавшиеся в срок или в последний час перед сроком; фигурными скобками обозначены явления, наблюдавшиеся между сроками (за 1-3 часа до срока); квадратными скобками обозначены град или гололедные отложения с указанием их диаметра в мм.
Облачность - указаны через наклонную черту общая и нижняя облачность в баллах и высота нижней границы облаков в метрах; квадратными скобками обозначены формы облаков: Ci - перистые, Cs - перисто-слоистые, Cc - перисто-кучевые, Ac - высококучевые, As - высокослоистые, Sc - слоисто-кучевые, Ns - слоисто-дождевые, Cu - кучевые, Cb - кучево-дождевые. Подробнее классификацию облаков см. в Атласе облаков (PDF).
T - Температура воздуха - температура, измеренная на высоте 2 м над землей.
Td - Температура точки росы - температура, при понижении до которой содержащийся в воздухе водяной пар достигнет насыщения.
f - Относительная влажность воздуха - влажноcть воздуха, измеренная на высоте 2 м над землей.
Te - Эффективная температура - температура, которую ощущает одетый по сезону человек в тени. Характеристика душности погоды. При расчете учитывается влияние влажности воздуха и скорости ветра на теплоощущения человека.
Tes - Эффективная температура на солнце - температура, которую ощущает человек, с поправкой на солнечный нагрев. Характеристика знойности погоды. Зависит от высоты солнца над горизонтом, облачности и скорости ветра. Ночью, в пасмурную погоду, а также при ветре 12 м/с и более поправка равна нулю.
P - Атмосферное давление - приведенное к уровню моря атмосферное давление.
Po - Атмосферное давление - измеренное на уровне метеостанции атмосферное давление.
Tmin - Минимальная температура - минимум температуры воздуха на высоте 2 м над землей.
Tmax - Максимальная температура - максимум температуры воздуха на высоте 2 м над землей.
R - Количество осадков - Количество выпавших осадков за период времени, мм. При наведении курсора мыши на число - период времени, за который выпало указанное количество осадков.
R24 - Количество осадков - Количество выпавших осадков за 24 часа, мм.
S - Снежный покров - Высота снежного покрова, см. При наведении курсора мыши на число - состояние снежного покрова и степень покрытия местности в баллах.